CW4352 Weather Reports


time (UTC)temp
C
wind
direction
speed
KPH
gust
KPH
rain 1hr
cm
rain 24hr
cm
rain mn
cm
humidity
%
barometer
mb
20260509131204 23 59 1.6 8.0 0.00 0.00 0.00 39 1010.6
20260509130204 24 75 3.2 16.1 0.00 0.00 0.00 41 1010.6
20260509121704 24 44 0.0 4.8 0.00 0.00 0.00 41 1010.7
20260509121204 24 46 3.2 8.0 0.00 0.00 0.00 41 1010.7
20260509120204 23 46 1.6 8.0 0.00 0.00 0.00 41 1010.8
20260509114704 23 42 0.0 4.8 0.00 0.00 0.00 41 1011.0
20260509114204 23 42 1.6 4.8 0.00 0.00 0.00 43 1011.0
20260509113204 23 42 3.2 8.0 0.00 0.00 0.00 44 1011.0
20260509111704 23 41 3.2 4.8 0.00 0.00 0.00 45 1011.7
20260509110705 22 40 3.2 8.0 0.00 0.00 0.00 46 1011.7
20260509110204 22 39 1.6 8.0 0.00 0.00 0.00 46 1011.7
20260509104704 22 27 1.6 9.7 0.00 0.00 0.00 50 1011.7
20260509104204 22 27 3.2 8.0 0.00 0.00 0.00 50 1011.7
20260509103704 22 18 1.6 4.8 0.00 0.00 0.00 51 1011.7
20260509101704 22 32 3.2 8.0 0.00 0.00 0.00 52 1011.7
20260509100205 22 30 3.2 4.8 0.00 0.00 0.00 56 1011.7
20260509094204 21 27 3.2 8.0 0.00 0.00 0.00 56 1011.7
20260509090204 21 23 1.6 8.0 0.00 0.00 0.00 55 1012.0
20260509084704 21 22 3.2 4.8 0.00 0.00 0.00 57 1012.0
20260509084204 21 21 3.2 4.8 0.00 0.00 0.00 54 1012.0
20260509083704 21 16 1.6 4.8 0.00 0.00 0.00 54 1012.0
20260509083204 21 16 1.6 8.0 0.00 0.00 0.00 55 1012.0
20260509074704 20 355 0.0 3.2 0.00 0.00 0.00 57 1012.1
20260509073704 20 355 1.6 3.2 0.00 0.00 0.00 58 1012.1
20260509071704 18 355 0.0 3.2 0.00 0.00 0.00 63 1012.2
20260509070204 18 355 0.0 4.8 0.00 0.00 0.00 65 1012.2
20260509064204 17 355 1.6 3.2 0.00 0.00 0.00 66 1012.2
20260509061204 15 355 0.0 4.8 0.00 0.00 0.00 72 1012.2
20260509053704 13 355 3.2 4.8 0.00 0.00 0.00 77 1012.1
20260509053204 13 355 1.6 9.7 0.00 0.00 0.00 77 1012.1
20260509050704 12 355 1.6 8.0 0.00 0.00 0.00 78 1011.7
20260509050203 12 355 3.2 8.0 0.00 0.00 0.00 79 1011.7
20260509044204 11 355 0.0 3.2 0.00 0.00 0.00 81 1011.6
20260509043704 11 355 0.0 3.2 0.00 0.00 0.00 80 1011.6
20260509043204 11 355 1.6 8.0 0.00 0.00 0.00 80 1011.6
20260509040204 12 355 3.2 8.0 0.00 0.00 0.00 79 1011.6
20260509034704 12 355 1.6 4.8 0.00 0.00 0.00 78 1011.6
20260509034204 12 355 1.6 4.8 0.00 0.00 0.00 78 1011.6
20260509031204 12 355 3.2 4.8 0.00 0.00 0.00 78 1011.4
20260509030704 12 355 1.6 9.7 0.00 0.00 0.00 79 1011.4
20260509030204 12 0 4.8 12.9 0.00 0.00 0.00 80 1011.4
20260509023704 11 32 3.2 8.0 0.00 0.00 0.00 82 1011.5
20260509023204 11 32 3.2 8.0 0.00 0.00 0.00 82 1011.5
20260509021204 12 32 1.6 4.8 0.00 0.00 0.00 82 1011.5
20260509020704 12 32 3.2 4.8 0.00 0.00 0.00 82 1011.5
20260509020204 12 32 1.6 4.8 0.00 0.00 0.00 82 1011.5
20260509014704 12 32 3.2 4.8 0.00 0.00 0.00 82 1011.5
20260509013704 12 32 3.2 4.8 0.00 0.00 0.00 83 1011.5
20260509013203 12 32 3.2 9.7 0.00 0.00 0.00 83 1011.5
20260509011204 11 38 1.6 4.8 0.00 0.00 0.00 84 1011.5
20260509010205 12 38 1.6 11.3 0.00 0.00 0.00 83 1011.5
20260509004203 12 38 1.6 4.8 0.00 0.00 0.00 84 1011.5
20260509003203 12 38 3.2 4.8 0.00 0.00 0.00 84 1011.5
20260509001704 12 38 1.6 4.8 0.00 0.00 0.00 84 1011.2
20260509001203 12 38 1.6 8.0 0.00 0.00 0.00 84 1011.2
20260509000703 12 38 3.2 4.8 0.00 0.00 0.00 84 1011.2
20260509000204 12 38 3.2 4.8 0.00 0.00 0.00 84 1011.2
20260508234204 12 38 1.6 4.8 0.00 0.00 0.00 84 1011.1
20260508231203 12 38 1.6 4.8 0.00 0.00 0.00 85 1011.1
20260508224204 12 38 1.6 4.8 0.00 0.00 0.00 84 1011.2
20260508223204 12 38 1.6 4.8 0.00 0.00 0.00 84 1011.1
20260508220705 12 38 3.2 8.0 0.00 0.00 0.00 84 1011.1
20260508214704 13 40 0.0 1.6 0.00 0.00 0.00 82 1011.0
20260508213704 13 40 0.0 0.0 0.00 0.00 0.00 82 1011.0
20260508213204 13 40 0.0 4.8 0.00 0.00 0.00 82 1011.0
20260508211704 13 40 0.0 3.2 0.00 0.00 0.00 82 1011.0
20260508211204 13 40 1.6 4.8 0.00 0.00 0.00 82 1011.0
20260508210204 13 40 0.0 3.2 0.00 0.00 0.00 81 1011.0
20260508204704 13 40 0.0 0.0 0.00 0.00 0.00 80 1011.0
20260508204204 13 40 0.0 1.6 0.00 0.00 0.00 80 1011.0
20260508200704 14 40 0.0 1.6 0.00 0.00 0.00 76 1010.4
20260508194704 14 40 0.0 0.0 0.00 0.00 0.00 75 1010.4
20260508193704 14 40 0.0 0.0 0.00 0.00 0.00 74 1010.4
20260508193204 15 40 0.0 0.0 0.00 0.00 0.00 74 1010.4
20260508191704 15 40 0.0 1.6 0.00 0.00 0.00 71 1010.4
20260508190704 16 40 0.0 0.0 0.00 0.00 0.00 69 1009.8
20260508190204 16 40 0.0 0.0 0.00 0.00 0.00 68 1009.8
20260508184704 17 40 0.0 0.0 0.00 0.00 0.00 62 1009.8
20260508181704 18 40 0.0 0.0 0.00 0.00 0.00 55 1009.4
20260508181204 19 40 0.0 0.0 0.00 0.00 0.00 54 1009.4
20260508180704 19 40 0.0 0.0 0.00 0.00 0.00 54 1009.4
20260508174203 20 40 1.6 3.2 0.00 0.00 0.00 51 1009.4
20260508173704 20 40 0.0 4.8 0.00 0.00 0.00 51 1009.0
20260508173204 20 40 0.0 3.2 0.00 0.00 0.00 51 1009.0
20260508171204 20 40 1.6 4.8 0.00 0.00 0.00 49 1009.0
20260508170704 21 40 1.6 4.8 0.00 0.00 0.00 49 1009.0
20260508164204 21 40 1.6 4.8 0.00 0.00 0.00 51 1009.0
20260508163704 21 40 0.0 4.8 0.00 0.00 0.00 49 1009.0
20260508154704 21 40 1.6 4.8 0.00 0.00 0.00 57 1009.0
20260508153704 21 40 0.0 4.8 0.00 0.00 0.00 54 1009.0
20260508153204 21 41 3.2 8.0 0.00 0.00 0.00 55 1009.0
20260508151704 21 45 0.0 4.8 0.00 0.00 0.00 57 1009.5
20260508150704 21 45 3.2 4.8 0.00 0.00 0.00 56 1009.5
20260508150204 21 45 3.2 8.0 0.00 0.00 0.00 57 1009.5
20260508143204 21 35 1.6 4.8 0.00 0.00 0.00 59 1009.5
20260508141704 20 34 1.6 4.8 0.00 0.00 0.00 60 1009.4
20260508141204 21 36 1.6 4.8 0.00 0.00 0.00 58 1009.5
20260508140204 21 40 0.0 4.8 0.00 0.00 0.00 62 1009.5
20260508134704 21 40 1.6 4.8 0.00 0.00 0.00 59 1009.5
20260508133704 21 40 3.2 4.8 0.00 0.00 0.00 60 1009.8